Regional Weather Roundup
Issued by NWS

Home | Current Version | Previous Version | Graphics & Text | Print | Product List | Glossary On
Versions: 1 2 3 4 5 6 7 8 9 10 11 12 13 14 15 16 17 18 19 20 21 22 23 24 25 26 27 28 29 30 31 32 33 34 35 36 37 38 39 40 41 42 43 44 45 46 47 48 49 50
000
ASUS43 KBIS 240602
RWRND

NORTH DAKOTA REGIONAL WEATHER ROUNDUP
NATIONAL WEATHER SERVICE BISMARCK ND
100 AM CDT FRI MAR 24 2017

NOTE: "FAIR" INDICATES FEW OR NO CLOUDS BELOW 12,000 FEET WITH NO
SIGNIFICANT WEATHER AND/OR OBSTRUCTIONS TO VISIBILITY.


NDZ001>003-009>011-017-240700-
NORTHWEST NORTH DAKOTA

CITY           SKY/WX    TMP DP  RH WIND       PRES   REMARKS
WILLISTON      FAIR      32  30  92 N9        29.95S
6HR MIN TEMP:  31; 6HR MAX TEMP:  56;

MINOT          FAIR      32  29  88 NW8       29.94F
MINOT AFB      CLEAR     31  29  91 N10       29.94F
$$

NDZ018>021-031>035-040>046-240700-
SOUTHWEST NORTH DAKOTA

CITY           SKY/WX    TMP DP  RH WIND       PRES   REMARKS
BISMARCK       FAIR      39  34  82 CALM      29.88S
6HR MIN TEMP:  36; 6HR MAX TEMP:  42; 6HR PCP:  0.06;

DICKINSON      FAIR      36  35  96 NW9       29.85F
GARRISON         N/A     30  27  88 NW10      29.90F
6HR MIN TEMP:  29; 6HR MAX TEMP:  43;

HETTINGER ARPT CLEAR     36  35  96 S8        29.89F
$$

NDZ004>008-012>016-024-026-027-054-240700-
NORTHEAST NORTH DAKOTA

CITY           SKY/WX    TMP DP  RH WIND       PRES   REMARKS
GRAND FORKS    CLEAR     34  33  96 N12       29.88S
GRND FRKS AFB  CLEAR     34  34  99 N12       29.88S
DEVILS LAKE    FAIR      31  29  92 N12       29.91F
$$

NDZ022-023-025-028>030-036>039-047>053-240700-
SOUTHEAST NORTH DAKOTA

CITY           SKY/WX    TMP DP  RH WIND       PRES   REMARKS
FARGO          CLOUDY    35  34  96 NE6       29.88F FOG
6HR MIN TEMP:  35; 6HR MAX TEMP:  37; 6HR PCP:  0.01;

JAMESTOWN      FAIR      34  32  92 N16       29.85R
$$





USA.gov is the U.S. government's official web portal to all federal, state and local government web resources and services.